FW6803 Weather Reports


time (UTC)temp
F
wind
direction
speed
knots
gust
knots
rain 1hr
in
rain 24hr
in
rain mn
in
humidity
%
barometer
mb
20260507023023 56 360 9.6 22.6 0.00 0.00 0.00 83 1010.5
20260507021521 57 360 9.6 20.0 0.00 0.00 0.00 83 1010.5
20260507020023 58 284 11.3 20.0 0.00 0.00 0.00 81 1010.5
20260507014521 59 302 9.6 18.2 0.00 0.00 0.00 80 1010.5
20260507013017 59 331 9.6 18.2 0.00 0.00 0.00 79 1010.5
20260507011526 60 287 10.4 20.0 0.00 0.00 0.00 78 1010.5
20260507010011 61 331 9.6 19.1 0.00 0.00 0.00 78 1010.6
20260507004509 61 355 11.3 19.1 0.00 0.00 0.00 77 1010.5
20260507003008 61 275 9.6 18.2 0.00 0.00 0.00 76 1010.5
20260507001509 62 304 9.6 16.5 0.00 0.00 0.00 75 1010.6
20260507000006 62 308 8.7 17.4 0.00 0.00 0.00 75 1010.8
20260506234506 63 340 7.0 16.5 0.00 0.00 0.00 75 1010.8
20260506233004 63 299 8.7 15.6 0.00 0.00 0.00 75 1010.9
20260506231504 63 360 9.6 16.5 0.00 0.00 0.00 75 1010.9
20260506230006 63 40 9.6 19.1 0.00 0.00 0.00 75 1011.0
20260506224502 63 284 10.4 16.5 0.00 0.00 0.00 74 1011.2
20260506223002 63 355 9.6 20.0 0.00 0.00 0.00 75 1011.3
20260506221500 64 308 9.6 18.2 0.00 0.00 0.00 74 1011.5
20260506214559 64 330 6.1 16.5 0.00 0.00 0.00 73 1011.9
20260506213058 65 326 7.8 16.5 0.00 0.00 0.00 72 1011.9
20260506211555 66 339 8.7 15.6 0.00 0.00 0.00 70 1011.9
20260506210054 67 360 5.2 11.3 0.00 0.00 0.00 70 1012.0
20260506204552 66 345 7.0 14.8 0.00 0.00 0.00 70 1012.1
20260506203052 66 355 5.2 13.0 0.00 0.00 0.00 71 1012.1
20260506201552 66 312 7.0 13.0 0.00 0.00 0.00 70 1012.4
20260506200047 67 290 6.1 10.4 0.00 0.00 0.00 68 1012.4
20260506194547 68 305 5.2 9.6 0.00 0.00 0.00 68 1012.5
20260506193044 68 304 5.2 9.6 0.00 0.00 0.00 66 1012.6
20260506191540 68 304 1.7 8.7 0.00 0.00 0.00 66 1012.7
20260506190041 68 324 3.5 9.6 0.00 0.00 0.00 67 1012.9
20260506184545 67 360 2.6 7.8 0.00 0.00 0.00 67 1012.8
20260506183036 67 315 1.7 7.8 0.00 0.00 0.00 70 1012.9
20260506181535 66 340 0.9 6.1 0.00 0.00 0.00 70 1012.9
20260506180034 65 286 0.9 7.0 0.00 0.00 0.00 71 1012.8
20260506174532 67 303 0.0 0.9 0.00 0.00 0.00 68 1012.8
20260506173038 65 296 0.0 0.0 0.00 0.00 0.00 69 1012.8
20260506171529 63 309 0.0 5.2 0.00 0.00 0.00 73 1012.9
20260506170031 63 309 0.0 0.0 0.00 0.00 0.00 73 1012.9
20260506164528 63 65 0.0 4.3 0.00 0.00 0.00 72 1012.9
20260506163031 62 60 0.0 0.0 0.00 0.00 0.00 75 1012.9
20260506161526 61 26 0.0 0.0 0.00 0.00 0.00 75 1013.0
20260506160025 60 21 0.0 0.0 0.00 0.00 0.00 75 1012.9
20260506154522 60 26 0.0 0.0 0.00 0.00 0.00 77 1013.0
20260506153021 60 334 0.0 0.0 0.00 0.00 0.00 77 1012.9
20260506151520 60 322 1.7 6.1 0.00 0.00 0.00 77 1012.8
20260506150016 59 350 0.0 0.0 0.00 0.00 0.00 78 1012.8
20260506144513 60 285 0.0 3.5 0.00 0.00 0.00 79 1012.7
20260506143017 58 24 0.0 0.0 0.00 0.00 0.00 80 1012.7
20260506141505 58 313 0.0 0.0 0.00 0.00 0.00 81 1012.5
20260506140001 57 330 0.0 0.0 0.00 0.00 0.00 82 1012.3
20260506134557 56 277 0.0 0.0 0.00 0.00 0.00 83 1012.2
20260506133053 56 33 0.0 0.0 0.00 0.00 0.00 84 1012.1
20260506131557 56 14 0.0 0.0 0.00 0.00 0.00 84 1012.2
20260506130108 56 30 0.0 0.0 0.00 0.00 0.00 84 1012.0
20260506124556 56 36 0.0 0.0 0.00 0.00 0.00 84 1011.9
20260506123048 56 36 0.0 0.0 0.00 0.00 0.00 84 1011.8
20260506121547 56 26 0.0 0.0 0.00 0.00 0.00 84 1011.7
20260506120046 56 5 0.0 0.0 0.00 0.00 0.00 84 1011.7
20260506114545 55 305 0.0 0.0 0.00 0.00 0.00 84 1011.7
20260506113052 55 9 0.0 0.0 0.00 0.00 0.00 85 1011.5
20260506111543 55 290 0.0 0.0 0.00 0.00 0.00 85 1011.4
20260506110051 56 360 0.0 0.0 0.00 0.00 0.00 85 1011.3
20260506104547 56 360 0.0 0.0 0.00 0.00 0.00 85 1011.2
20260506103047 56 350 0.0 0.0 0.00 0.00 0.00 85 1011.2
20260506101549 56 323 0.0 0.0 0.00 0.00 0.00 84 1011.1
20260506100057 56 294 0.0 0.0 0.00 0.00 0.00 84 1011.1
20260506094536 56 350 0.0 7.0 0.00 0.01 0.00 84 1011.2
20260506093042 56 333 0.0 6.1 0.00 0.01 0.00 83 1011.2
20260506091537 56 306 0.0 5.2 0.00 0.01 0.00 83 1011.0
20260506090033 56 329 0.9 5.2 0.00 0.01 0.00 83 1011.1
20260506084531 56 328 0.9 4.3 0.00 0.04 0.00 83 1011.1
20260506083032 56 321 4.3 7.8 0.00 0.04 0.00 84 1011.1
20260506081533 56 342 2.6 7.0 0.00 0.04 0.00 84 1011.2
20260506073037 56 333 0.0 5.2 0.00 0.06 0.04 85 1010.9
20260506071523 56 294 0.9 6.1 0.00 0.06 0.04 85 1010.9
20260506061518 56 313 0.0 5.2 0.00 0.08 0.04 84 1010.5
20260506044531 57 306 1.7 7.8 0.00 0.11 0.04 84 1010.0
20260506043011 57 301 1.7 7.0 0.00 0.11 0.04 83 1009.9
20260506041509 57 360 1.7 7.0 0.00 0.11 0.04 83 1009.7
20260506040006 57 331 2.6 7.8 0.00 0.11 0.04 82 1009.3
20260506034511 57 270 3.5 12.2 0.00 0.11 0.04 81 1009.1
20260506033007 57 273 4.3 9.6 0.00 0.11 0.04 81 1009.0
20260506031502 57 314 3.5 9.6 0.00 0.11 0.04 80 1008.8
20260506030100 58 290 3.5 10.4 0.00 0.11 0.04 80 1008.6
20260506024559 58 250 3.5 11.3 0.00 0.11 0.04 79 1008.5